Temp
65 62 62 61 63 61 61 60 61 61 61 61 61 60 57 55 55 54 53 52 51 50
64 64 61 62 62 61 61 63 61 61 60 60 59 58 55 53 53 52 50 49 49 48
64 64 65 64 62 60 60 60 60 59 58 58 56 55 52 50 50 49 48 50 48 48
64 64 63 62 60 58 58 58 58 58 57 56 54 51 50 49 49 48 47 47 48 48
63 62 61 59 58 57 56 57 56 56 56 56 52 49 48 48 48 47 46 47 47 48
61 60 58 57 56 56 55 54 54 54 54 53 50 49 48 48 47 46 46 46 45 47
58 57 55 55 53 53 53 52 52 51 52 51 49 49 48 47 44 44 45 45 46 50
56 55 53 52 51 51 50 50 50 50 50 49 49 50 44 44 42 42 42 44 46 51
55 53 51 50 48 48 47 46 47 46 47 46 51 47 48 46 41 42 41 41 44 46
53 51 49 48 47 44 43 43 43 44 45 44 43 45 46 47 41 40 40 41 42 44
51 48 47 45 43 42 41 41 41 42 43 48 49 45 44 45 40 40 40 41 41 40
49 45 44 42 41 40 40 41 46 48 48 42 43 43 42 42 39 40 38 41 41 42
48 45 43 41 40 40 44 47 47 42 46 45 38 42 41 41 39 37 37 37 40 43
42 41 40 39 39 38 38 38 37 38 38 39 40 37 41 40 37 36 36 36 37 40
MSLP
1012.10 1012.09 1012.80 1014.09 1014.05 1014.56 1015.47 1015.62 1015.73 1015.96 1015.81 1015.91 1016.02 1015.99 1016.35 1016.43 1016.51 1016.75 1016.86 1016.72 1016.19 1016.18
1012.67 1012.85 1013.30 1013.54 1014.26 1014.79 1015.39 1016.06 1016.16 1016.09 1016.25 1016.65 1016.62 1016.49 1016.55 1016.89 1016.85 1016.98 1017.10 1016.81 1016.50 1016.35
1012.58 1013.16 1013.46 1013.79 1014.90 1015.98 1016.17 1016.11 1016.15 1016.29 1017.01 1017.21 1017.48 1016.97 1016.97 1017.01 1017.52 1017.63 1017.34 1016.90 1016.71 1016.35
1012.75 1013.29 1013.66 1014.71 1015.47 1016.16 1016.29 1016.50 1016.71 1017.35 1017.37 1017.50 1017.63 1017.44 1017.21 1017.42 1017.85 1018.07 1017.65 1016.86 1016.75 1016.19
1013.46 1013.85 1014.52 1015.51 1016.00 1016.47 1017.14 1017.21 1017.47 1017.81 1017.88 1017.92 1017.91 1017.86 1017.72 1018.14 1018.36 1018.22 1017.62 1017.09 1016.56 1016.02
1014.35 1014.89 1015.47 1016.13 1016.72 1017.13 1017.53 1017.69 1017.87 1018.30 1018.05 1018.33 1017.96 1018.23 1018.26 1018.31 1018.42 1018.03 1017.60 1017.37 1016.60 1015.85
1015.33 1015.67 1016.40 1016.60 1017.23 1017.56 1017.99 1018.30 1018.48 1018.13 1018.44 1018.17 1018.14 1018.01 1018.67 1018.66 1018.24 1017.99 1017.73 1017.12 1016.31 1015.52
1015.61 1016.18 1016.73 1017.44 1017.99 1018.23 1018.55 1018.66 1018.55 1018.77 1018.60 1018.21 1018.01 1018.50 1018.80 1018.59 1018.33 1018.14 1017.57 1016.70 1016.21 1015.77
1016.69 1017.22 1017.93 1018.40 1018.79 1018.73 1018.76 1018.99 1018.92 1018.88 1018.45 1018.35 1018.73 1018.81 1018.50 1018.41 1018.42 1017.90 1017.38 1016.67 1016.41 1015.84
1017.25 1017.87 1018.37 1018.88 1018.81 1018.87 1019.10 1019.01 1019.01 1019.27 1019.16 1018.93 1018.67 1018.48 1018.35 1018.47 1018.35 1017.63 1017.13 1016.95 1016.57 1016.16
1017.95 1018.48 1018.69 1018.83 1019.26 1019.51 1019.53 1019.69 1019.63 1019.45 1019.11 1018.40 1018.55 1018.90 1018.78 1018.16 1018.05 1017.61 1017.57 1017.03 1016.75 1016.46
1018.80 1019.19 1019.20 1019.06 1019.56 1019.83 1019.79 1019.43 1019.37 1018.96 1018.91 1018.84 1019.31 1019.09 1018.76 1018.35 1018.07 1017.87 1017.68 1017.28 1016.82 1016.47
1018.99 1019.21 1019.52 1019.70 1019.65 1019.81 1019.72 1019.69 1019.81 1019.89 1019.55 1019.40 1019.50 1019.13 1019.29 1018.70 1018.33 1018.14 1017.67 1017.34 1016.83 1016.43
1019.99 1020.02 1020.23 1020.32 1020.49 1020.62 1020.65 1020.58 1020.81 1020.50 1020.33 1019.90 1019.72 1019.73 1019.33 1018.97 1018.61 1018.35 1017.96 1017.51 1016.94 1016.41
Wind_Speed
9 7 7 5 6 5 4 4 3 4 5 5 4 4 4 3 3 4 4 6 4 3
6 8 7 8 7 5 6 4 5 6 6 6 6 6 6 4 5 5 4 5 5 3
11 10 10 11 10 7 5 6 7 7 7 7 6 6 6 5 6 5 4 3 5 4
11 11 11 10 8 7 7 7 8 6 6 6 6 6 7 6 5 5 5 5 4 6
12 12 12 10 9 8 7 7 7 6 6 5 6 6 7 5 4 5 6 6 6 6
10 11 10 9 8 8 7 7 6 4 5 4 6 5 5 4 4 5 5 6 6 6
10 10 9 9 8 8 6 6 5 6 4 5 4 5 4 4 5 6 6 6 6 6
11 10 10 9 7 7 7 6 6 5 4 4 4 3 2 4 5 6 6 6 7 7
11 11 9 8 8 8 7 6 6 6 6 6 2 1 5 6 4 6 6 6 6 6
11 11 10 7 7 7 6 6 7 6 5 3 1 2 7 9 4 5 6 6 6 7
10 9 8 8 7 6 4 3 1 3 4 3 2 7 10 10 5 6 6 6 7 6
10 8 6 7 5 2 2 3 3 3 5 6 6 12 15 9 5 5 6 7 7 7
8 7 7 5 5 3 3 5 6 6 7 12 7 12 12 12 5 7 7 7 7 11
7 7 6 6 6 6 6 6 7 7 6 7 6 6 14 16 6 6 7 6 7 7
Wind_Direction
145 139 121 162 132 107 122 98 91 88 74 63 48 43 33 40 13 357 357 349 359 314
106 112 133 113 100 104 91 108 86 75 61 34 34 45 41 28 16 21 8 16 6 314
116 111 104 100 96 94 89 77 72 60 53 45 42 40 41 35 29 36 359 343 343 344
109 103 94 91 90 79 70 59 56 56 57 45 35 38 54 55 34 13 334 342 347 326
100 95 90 91 84 77 73 59 63 50 43 35 69 56 60 39 10 355 339 332 337 324
92 90 88 87 81 70 75 69 53 51 41 61 77 66 53 45 5 347 332 318 318 313
94 88 81 74 70 69 64 56 40 34 39 106 97 65 34 19 1 340 326 310 316 311
99 89 85 81 72 64 47 36 37 50 35 53 69 53 23 22 348 318 329 328 327 322
82 85 80 75 75 68 56 39 34 19 18 29 48 61 38 21 339 332 339 339 326 333
89 85 80 76 64 55 42 36 31 16 9 344 195 55 31 4 342 349 344 352 349 340
86 86 85 73 62 46 33 31 4 337 329 356 45 30 17 0 349 356 355 348 332 321
86 81 77 71 59 41 35 1 347 351 6 14 57 40 28 9 354 351 334 329 320 323
72 68 57 47 34 13 11 22 13 9 38 63 70 43 32 18 348 339 335 324 317 321
44 54 41 39 37 48 44 38 32 30 10 30 42 13 15 6 357 340 330 320 320 318